Flag Weather past 2 weeks in Jackson, Mississippi, U.S.A.

Now
52 °F

Passing clouds.


Feels Like: 52 °F
Forecast: 48 / 69 °F
Wind: 3 mph from Northeast

Location: Hawkins Field

Current Time: Nov 22, 2014 at 4:59:21 AM

Latest Report: Nov 22, 2014 at 3:53 AM


Visibility: 10 mi

Pressure: 30.25 "Hg

Humidity: 75%

Dew point: 44 °F

Location of JacksonLocation

Historic Weather in Jackson — Graph

°F

Jackson temperature yesterday

Maximum temperature yesterday: 70 °F (at 11:53 AM)
Minimum temperature yesterday: 41 °F (at 5:57 AM)
Average temperature yesterday: 56 °F

Past Weeks' High & Low Weather Summary

 TemperatureHumidityPressure
High77 °F (Nov 11, 11:53 AM)97% (Nov 9, 5:59 AM)30.52 "Hg (Nov 9, 5:59 AM)
Low26 °F (Nov 19, 3:53 AM)20% (Nov 19, 1:53 PM)29.83 "Hg (Nov 16, 5:53 PM)
Average47 °F65%30.17 "Hg
* Reported Nov 7 3:53 AM — Nov 22 3:53 AM, Jackson, Weather by CustomWeather, © 2014

Note: Actual official high and low records may vary slightly from our data, if they occured in-between our weather recording intervals... More about our weather records

Advertising

Jackson weather history for previous 24 hours

 ConditionsComfort  
Time TempWeatherWind HumidityBarometerVisibility
3:53 AM
Nov 22
52 °FPassing clouds.3 mph75%30.25 "Hg10 mi
2:53 AM51 °FOvercast.No wind80%30.27 "Hg10 mi
1:53 AM49 °FOvercast.3 mph84%30.26 "Hg10 mi
12:53 AM52 °FClear.3 mph75%30.26 "Hg10 mi
11:53 PM
Nov 21
52 °FClear.3 mph77%30.27 "Hg10 mi
10:53 PM55 °FClear.6 mph67%30.28 "Hg10 mi
9:53 PM56 °FClear.5 mph67%30.28 "Hg10 mi
8:53 PM58 °FClear.5 mph65%30.27 "Hg10 mi
7:53 PM59 °FClear.6 mph60%30.26 "Hg10 mi
6:53 PM61 °FPassing clouds.6 mph56%30.25 "Hg10 mi
5:53 PM63 °FOvercast.8 mph50%30.25 "Hg10 mi
4:53 PM65 °FOvercast.8 mph47%30.24 "Hg10 mi
3:53 PM67 °FOvercast.10 mph44%30.24 "Hg10 mi
2:53 PM68 °FOvercast.14 mph40%30.23 "Hg10 mi
1:53 PM69 °FPartly sunny.17 mph41%30.22 "Hg10 mi
12:53 PM70 °FSunny.15 mph38%30.24 "Hg10 mi
11:53 AM70 °FSunny.13 mph38%30.27 "Hg10 mi
10:53 AM67 °FSunny.10 mph42%30.29 "Hg10 mi
9:53 AM63 °FSunny.8 mph52%30.30 "Hg10 mi
8:53 AM56 °FScattered clouds.7 mph72%30.30 "Hg10 mi
7:53 AM49 °FPassing clouds.5 mph86%30.29 "Hg10 mi
6:53 AM43 °FPartly sunny.No wind93%30.28 "Hg7 mi
5:57 AM41 °FFog.No wind93%30.28 "Hg3 mi
4:57 AM43 °FFog.3 mph93%30.26 "Hg3 mi
Weather by CustomWeather, © 2014

See weather overviewHow to use our weather pages